FW2982 Weather Reports


Display with metric or nautical units.
time (UTC)temp
F
wind
direction
speed
MPH
gust
MPH
rain 1hr
in
rain 24hr
in
rain mn
in
humidity
%
barometer
mb
20260903160155 83 302 0.0 2.0 0.00 0.18 0.00 85 1016.0
20260903155652 82 303 1.0 5.0 0.00 0.18 0.00 85 1016.1
20260903155217 81 93 1.0 2.0 0.00 0.18 0.00 86 1016.4
20260903155212 81 307 2.0 5.0 0.00 0.18 0.00 85 1016.2
20260903153913 81 327 0.0 1.0 0.00 0.18 0.00 85 1016.5
20260903153410 82 327 0.0 3.0 0.00 0.18 0.00 84 1016.4
20260903152911 82 327 1.0 3.0 0.00 0.18 0.00 84 1015.7
20260903152412 81 314 0.0 2.0 0.00 0.18 0.00 85 1015.6
20260903151912 81 293 1.0 2.0 0.00 0.18 0.00 85 1015.7
20260903151650 81 238 0.0 2.0 0.00 0.18 0.00 85 1015.7
20260903150909 81 238 1.0 5.0 0.00 0.18 0.00 84 1015.7
20260903150652 81 240 1.0 5.0 0.00 0.18 0.00 86 1015.7
20260903145909 81 336 0.0 3.0 0.00 0.18 0.00 86 1015.6
20260903145407 81 292 0.0 2.0 0.00 0.18 0.00 86 1015.5
20260903144909 80 300 0.0 2.0 0.00 0.18 0.00 87 1015.4
20260903144408 81 298 0.0 2.0 0.00 0.18 0.00 87 1015.5
20260903143907 81 299 0.0 3.0 0.00 0.18 0.00 86 1015.5
20260903143403 81 299 1.0 3.0 0.00 0.18 0.00 88 1015.5
20260903142904 80 6 0.0 2.0 0.00 0.18 0.00 89 1015.5
20260903142404 80 337 0.0 2.0 0.00 0.18 0.00 90 1015.5
20260903141903 79 337 0.0 2.0 0.00 0.18 0.00 90 1015.3
20260903141404 80 338 0.0 2.0 0.00 0.18 0.00 92 1015.4
20260903140903 77 102 1.0 2.0 0.00 0.18 0.00 93 1015.2
20260903140403 78 228 0.0 2.0 0.00 0.18 0.00 95 1015.0
20260903135906 77 214 0.0 2.0 0.00 0.18 0.00 96 1015.1
20260903135641 77 214 0.0 2.0 0.00 0.18 0.00 97 1015.2
20260903134903 75 214 0.0 2.0 0.00 0.18 0.00 97 1015.1
20260903134645 74 190 0.0 2.0 0.00 0.18 0.00 97 1015.0
20260903133902 74 190 0.0 2.0 0.00 0.18 0.00 97 1014.9
20260903133402 74 190 1.0 3.0 0.00 0.18 0.00 97 1015.2
20260903132904 74 189 1.0 4.0 0.00 0.18 0.00 97 1015.1
20260903132402 74 127 0.0 4.0 0.00 0.18 0.00 97 1015.4
20260903131902 74 41 1.0 3.0 0.00 0.18 0.00 97 1015.3
20260903131404 74 210 0.0 3.0 0.00 0.18 0.00 97 1015.5
20260903130902 74 185 1.0 3.0 0.00 0.18 0.00 97 1015.6
20260903130404 74 76 0.0 1.0 0.00 0.18 0.00 97 1015.8
20260903125902 74 76 0.0 0.0 0.00 0.18 0.00 97 1016.0
20260903125403 74 76 0.0 1.0 0.00 0.18 0.00 97 1016.0
20260903124902 74 76 0.0 2.0 0.00 0.18 0.00 98 1016.2
20260903124403 73 75 0.0 2.0 0.00 0.18 0.00 97 1016.1
20260903123902 73 75 0.0 3.0 0.00 0.18 0.00 97 1016.2
20260903123401 73 75 1.0 3.0 0.00 0.18 0.00 97 1016.3
20260903122903 73 65 0.0 2.0 0.00 0.18 0.00 97 1016.3
20260903122640 73 65 0.0 3.0 0.00 0.18 0.00 97 1016.3
20260903121902 72 65 0.0 3.0 0.00 0.18 0.00 97 1016.4
20260903121641 72 68 0.0 3.0 0.00 0.18 0.00 97 1016.4
20260903120903 72 35 1.0 4.0 0.00 0.18 0.00 97 1016.4
20260903120403 72 59 1.0 4.0 0.00 0.18 0.00 97 1016.6
20260903115905 72 52 1.0 3.0 0.00 0.18 0.00 97 1016.6
20260903115403 72 52 0.0 4.0 0.00 0.18 0.00 97 1016.5
20260903114903 72 52 1.0 4.0 0.00 0.18 0.00 97 1016.5
20260903114404 72 44 1.0 3.0 0.00 0.18 0.00 97 1016.5
20260903113902 72 298 0.0 3.0 0.00 0.18 0.00 97 1016.6
20260903113403 72 235 1.0 4.0 0.00 0.18 0.00 97 1016.5
20260903112903 72 54 1.0 4.0 0.00 0.18 0.00 97 1016.4
20260903112640 72 63 1.0 4.0 0.00 0.18 0.00 97 1016.4
20260903111902 72 58 0.0 4.0 0.00 0.18 0.00 97 1016.2
20260903111403 72 66 0.0 0.0 0.00 0.18 0.00 97 1016.3
20260903110902 72 66 0.0 0.0 0.00 0.18 0.00 97 1015.7
20260903110401 72 66 0.0 0.0 0.00 0.18 0.00 97 1015.5
20260903105918 72 66 0.0 0.0 0.00 0.18 0.00 97 1015.5
20260903105911 72 66 0.0 0.0 0.00 0.18 0.00 97 1015.5
20260903104856 72 66 0.0 0.0 0.00 0.18 0.00 97 1015.4
20260903104635 71 66 0.0 0.0 0.00 0.18 0.00 97 1015.4
20260903103853 71 66 0.0 0.0 0.00 0.18 0.00 97 1015.3
20260903103631 71 66 0.0 0.0 0.00 0.18 0.00 97 1015.1
20260903102850 71 66 0.0 0.0 0.00 0.18 0.00 97 1015.0
20260903102349 71 66 0.0 0.0 0.00 0.18 0.00 97 1014.6
20260903101847 71 66 0.0 0.0 0.00 0.18 0.00 97 1014.6
20260903101409 71 66 0.0 0.0 0.00 0.18 0.00 97 1014.5
20260903101401 71 66 0.0 0.0 0.00 0.18 0.00 97 1014.6
20260903100344 71 66 0.0 0.0 0.00 0.18 0.00 97 1014.4
20260903095841 71 66 0.0 0.0 0.00 0.18 0.00 97 1014.4
20260903095342 71 66 0.0 0.0 0.00 0.18 0.00 97 1014.5
20260903094837 71 66 0.0 0.0 0.00 0.18 0.00 97 1014.5
20260903094335 71 66 0.0 0.0 0.00 0.18 0.00 97 1014.6
20260903093835 71 66 0.0 0.0 0.00 0.18 0.00 97 1014.6
20260903093331 71 66 0.0 0.0 0.00 0.18 0.00 97 1014.6
20260903092832 71 66 0.0 0.0 0.00 0.18 0.00 97 1014.7
20260903092331 70 66 0.0 0.0 0.00 0.18 0.00 97 1014.8
20260903091830 71 66 0.0 0.0 0.00 0.18 0.00 97 1014.7
20260903091330 71 66 0.0 0.0 0.00 0.18 0.00 97 1014.7
20260903090831 71 66 0.0 0.0 0.00 0.18 0.00 97 1014.7
20260903090332 71 66 0.0 0.0 0.00 0.18 0.00 97 1014.7
20260903085827 71 66 0.0 0.0 0.00 0.18 0.00 97 1014.6
20260903085328 70 66 0.0 0.0 0.00 0.18 0.00 97 1014.5
20260903084822 70 66 0.0 0.0 0.00 0.18 0.00 97 1014.6
20260903084322 71 66 0.0 0.0 0.00 0.18 0.00 97 1014.5
20260903084104 71 66 0.0 0.0 0.00 0.18 0.00 97 1014.4
20260903083323 71 66 0.0 0.0 0.00 0.18 0.00 97 1014.4
20260903082817 71 66 0.0 0.0 0.00 0.18 0.00 97 1014.3
20260903082316 71 66 0.0 0.0 0.00 0.18 0.00 97 1014.3
20260903081817 71 66 0.0 0.0 0.00 0.18 0.00 97 1014.4
20260903081316 71 66 0.0 0.0 0.00 0.18 0.00 97 1014.6
20260903081048 71 66 0.0 0.0 0.00 0.18 0.00 97 1014.6
20260903080307 71 66 0.0 1.0 0.00 0.18 0.00 97 1014.5
20260903075808 71 66 0.0 1.0 0.00 0.18 0.00 97 1014.6
20260903075308 71 66 0.0 0.0 0.00 0.18 0.00 97 1014.6
20260903074804 71 66 0.0 0.0 0.00 0.18 0.00 97 1014.6
20260903074303 71 66 0.0 0.0 0.00 0.18 0.00 97 1014.6
20260903073803 71 66 0.0 0.0 0.00 0.18 0.00 97 1014.5
20260903073304 71 66 0.0 0.0 0.00 0.18 0.00 97 1014.5
20260903072805 71 66 0.0 0.0 0.00 0.18 0.00 97 1014.4
20260903072306 71 66 0.0 2.0 0.00 0.18 0.00 97 1014.5
20260903072041 71 66 0.0 2.0 0.00 0.18 0.00 97 1014.4
20260903071303 71 66 0.0 1.0 0.00 0.18 0.00 97 1014.5
20260903070804 71 66 0.0 3.0 0.00 0.18 0.00 97 1014.3
20260903070304 71 66 0.0 3.0 0.00 0.18 0.00 97 1014.3
20260903065802 71 144 0.0 2.0 0.00 0.18 0.00 97 1014.2
20260903065305 71 144 0.0 0.0 0.00 0.18 0.00 97 1014.2
20260903064802 71 144 0.0 0.0 0.00 0.18 0.00 97 1014.3
20260903064301 71 144 0.0 0.0 0.00 0.18 0.00 97 1014.4
20260903063828 71 144 0.0 2.0 0.00 0.18 0.00 97 1014.6
20260903063818 71 144 0.0 1.0 0.00 0.18 0.00 97 1014.5
20260903062803 71 144 0.0 2.0 0.00 0.18 0.00 97 1014.4
20260903062542 71 52 0.0 1.0 0.00 0.18 0.00 97 1014.4
20260903061802 71 52 0.0 2.0 0.00 0.18 0.00 97 1014.3
20260903061302 71 52 0.0 2.0 0.00 0.18 0.00 97 1014.3
20260903060802 71 51 0.0 2.0 0.00 0.18 0.00 97 1014.5
20260903060302 71 51 1.0 2.0 0.00 0.18 0.00 97 1014.6
20260903055803 71 51 0.0 1.0 0.00 0.18 0.00 97 1014.5
20260903055306 71 97 0.0 1.0 0.00 0.18 0.00 97 1014.5
20260903054802 71 73 0.0 0.0 0.00 0.18 0.00 97 1014.6
20260903054302 71 73 0.0 0.0 0.00 0.18 0.00 96 1014.7
20260903053802 71 73 0.0 0.0 0.00 0.18 0.00 96 1014.8
20260903053326 71 73 0.0 0.0 0.00 0.18 0.00 96 1014.8
20260903053318 71 73 0.0 0.0 0.00 0.18 0.00 96 1014.8
20260903052541 71 73 0.0 0.0 0.00 0.18 0.00 96 1014.8
20260903051803 71 73 0.0 0.0 0.00 0.18 0.00 96 1014.8
20260903051259 71 73 0.0 0.0 0.00 0.18 0.00 96 1014.9
20260903050800 71 73 0.0 0.0 0.00 0.18 0.00 96 1015.0
20260903050300 72 73 0.0 0.0 0.00 0.18 0.00 96 1015.1
20260903045749 72 73 0.0 0.0 0.00 0.18 0.00 96 1015.0
20260903045251 72 73 0.0 0.0 0.00 0.18 0.00 96 1015.1
20260903044747 72 73 0.0 0.0 0.00 0.18 0.00 96 1015.1
20260903044245 72 73 0.0 0.0 0.00 0.18 0.00 96 1015.2
20260903043746 72 73 0.0 0.0 0.00 0.18 0.00 96 1015.2
20260903043643 72 73 0.0 0.0 0.00 0.18 0.00 96 1015.3
20260903043357 72 73 0.0 0.0 0.00 0.18 0.00 96 1015.2
20260903043338 72 73 0.0 0.0 0.00 0.18 0.00 96 1015.2
20260903043109 72 73 0.0 0.0 0.00 0.18 0.00 96 1015.3
20260903041243 72 73 0.0 0.0 0.00 0.18 0.00 96 1015.4
20260903041024 72 73 0.0 0.0 0.00 0.18 0.00 96 1015.5
20260903040243 72 73 0.0 0.0 0.00 0.18 0.00 96 1015.6
20260903035743 72 73 0.0 0.0 0.00 0.18 0.18 96 1015.5
20260903035243 72 73 0.0 0.0 0.00 0.18 0.18 96 1015.4
20260903034743 72 73 0.0 0.0 0.00 0.18 0.18 96 1015.5
20260903034243 72 73 0.0 0.0 0.00 0.18 0.18 96 1015.3
20260903033742 72 73 0.0 0.0 0.00 0.18 0.18 96 1015.2
20260903033244 72 73 0.0 0.0 0.00 0.18 0.18 96 1015.3
20260903032741 72 73 0.0 0.0 0.00 0.18 0.18 96 1015.4
20260903032242 72 73 0.0 0.0 0.00 0.18 0.18 96 1015.5
20260903031806 72 73 0.0 0.0 0.00 0.18 0.18 96 1015.6
20260903031757 72 73 0.0 0.0 0.00 0.18 0.18 96 1015.7
20260903031021 72 73 0.0 0.0 0.00 0.18 0.18 96 1015.3
20260903030242 72 73 0.0 0.0 0.00 0.18 0.18 96 1015.5
20260903025742 72 73 0.0 0.0 0.00 0.18 0.18 96 1015.3
20260903025241 72 73 0.0 0.0 0.00 0.18 0.18 96 1015.5
20260903024742 72 73 0.0 0.0 0.00 0.18 0.18 96 1015.4
20260903024243 72 73 0.0 0.0 0.00 0.18 0.18 96 1015.4
20260903023741 72 73 0.0 0.0 0.00 0.18 0.18 96 1015.3
20260903023241 72 73 0.0 1.0 0.00 0.18 0.18 96 1015.3
20260903023019 72 73 1.0 2.0 0.00 0.18 0.18 96 1015.2
20260903022543 72 73 2.0 2.0 0.00 0.18 0.18 96 1015.1
20260903022539 72 73 1.0 2.0 0.00 0.18 0.18 96 1015.1
20260903021241 72 73 0.0 2.0 0.00 0.18 0.18 96 1014.9
20260903020742 72 73 0.0 0.0 0.00 0.18 0.18 96 1014.8
20260903020304 72 73 0.0 0.0 0.00 0.18 0.18 96 1014.9
20260903020256 72 73 0.0 0.0 0.00 0.18 0.18 96 1014.7
20260903015240 72 73 0.0 0.0 0.00 0.18 0.18 96 1014.7
20260903014740 72 73 0.0 0.0 0.00 0.18 0.18 96 1014.6
20260903014240 73 73 0.0 0.0 0.00 0.18 0.18 96 1014.6
20260903013741 73 73 0.0 0.0 0.00 0.18 0.18 96 1014.8
20260903013519 73 73 0.0 0.0 0.00 0.18 0.18 96 1015.0
20260903012740 73 73 0.0 0.0 0.00 0.18 0.18 96 1015.0
20260903012243 73 73 0.0 0.0 0.00 0.18 0.18 96 1015.0
20260903012013 73 73 0.0 0.0 0.00 0.18 0.18 95 1015.2
20260903011231 73 73 0.0 0.0 0.00 0.18 0.18 96 1015.2
20260903010731 73 73 0.0 0.0 0.00 0.18 0.18 95 1015.4
20260903010232 73 73 0.0 0.0 0.00 0.18 0.18 96 1015.3
20260903005731 73 73 0.0 0.0 0.00 0.18 0.18 95 1015.2
20260903005513 73 73 0.0 0.0 0.00 0.18 0.18 95 1015.2
20260903004733 73 73 0.0 0.0 0.00 0.18 0.18 95 1015.3
20260903004230 73 73 0.0 1.0 0.00 0.18 0.18 95 1015.3
20260903003751 74 73 0.0 0.0 0.00 0.18 0.18 95 1015.1
20260903003744 73 73 0.0 1.0 0.00 0.18 0.18 95 1015.2
20260903002731 74 73 0.0 0.0 0.00 0.18 0.18 95 1015.0
20260903002232 74 73 0.0 0.0 0.00 0.18 0.18 95 1015.1
20260903001732 74 73 0.0 0.0 0.00 0.18 0.18 95 1015.1
20260903001231 74 73 0.0 0.0 0.00 0.18 0.18 95 1015.2
20260903001013 74 73 0.0 0.0 0.00 0.18 0.18 95 1015.3
20260903000233 74 73 0.0 0.0 0.00 0.18 0.18 95 1015.5
20260902235731 74 73 0.0 0.0 0.00 0.18 0.18 95 1015.5
20260902235232 74 73 0.0 0.0 0.00 0.18 0.18 95 1015.4
20260902234733 74 73 0.0 1.0 0.00 0.18 0.18 95 1015.3
20260902234230 74 73 0.0 1.0 0.00 0.18 0.18 94 1015.2
20260902233731 75 73 0.0 0.0 0.00 0.18 0.18 94 1015.2
20260902233230 75 73 0.0 0.0 0.00 0.18 0.18 94 1015.3
20260902232732 75 73 0.0 0.0 0.00 0.18 0.18 94 1015.1
20260902232231 75 73 0.0 0.0 0.00 0.18 0.18 94 1015.1
20260902231731 75 73 0.0 0.0 0.00 0.18 0.18 94 1015.3
20260902231232 75 73 0.0 0.0 0.00 0.18 0.18 94 1015.5
20260902230730 75 73 0.0 0.0 0.00 0.18 0.18 93 1015.6
20260902230232 75 73 0.0 0.0 0.00 0.18 0.18 93 1015.6
20260902230011 75 73 0.0 0.0 0.00 0.18 0.18 93 1015.5
20260902225207 75 73 0.0 1.0 0.00 0.18 0.18 93 1015.5
20260902224726 76 73 0.0 0.0 0.00 0.18 0.18 93 1015.5
20260902224719 75 73 0.0 1.0 0.00 0.18 0.18 93 1015.5
20260902223703 76 73 0.0 0.0 0.00 0.18 0.18 92 1015.6
20260902223203 76 73 0.0 0.0 0.00 0.18 0.18 93 1015.6
20260902222704 76 73 0.0 0.0 0.00 0.18 0.18 93 1015.6
20260902222203 76 73 0.0 0.0 0.00 0.18 0.18 93 1015.6
20260902221917 76 73 0.0 2.0 0.00 0.18 0.18 93 1015.5
20260902221707 76 73 0.0 2.0 0.00 0.18 0.18 93 1015.5
20260902221203 76 73 0.0 2.0 0.00 0.18 0.18 94 1015.3
20260902220704 76 73 0.0 1.0 0.00 0.18 0.18 95 1015.4
20260902220159 76 73 0.0 0.0 0.00 0.18 0.18 95 1015.5
20260902215659 76 73 0.0 2.0 0.00 0.18 0.18 95 1015.6
20260902215159 76 73 0.0 2.0 0.00 0.18 0.18 95 1015.7
20260902214657 76 73 0.0 2.0 0.00 0.18 0.18 95 1015.8
20260902214435 76 73 0.0 2.0 0.00 0.18 0.18 95 1015.9
20260902213658 76 73 0.0 1.0 0.00 0.18 0.18 95 1016.2
20260902213152 75 73 0.0 1.0 0.00 0.18 0.18 95 1016.1
20260902212652 75 73 0.0 0.0 0.00 0.18 0.18 95 1016.2
20260902212153 75 73 0.0 0.0 0.00 0.18 0.18 95 1016.1
20260902211648 75 73 0.0 1.0 0.00 0.18 0.18 95 1016.0
20260902211147 74 73 0.0 1.0 0.00 0.18 0.18 95 1015.9
20260902210648 74 73 0.0 1.0 0.00 0.18 0.18 95 1015.9
20260902210148 74 73 0.0 2.0 0.00 0.18 0.18 95 1015.8
20260902205648 74 73 0.0 2.0 0.00 0.18 0.18 95 1015.6
20260902205148 74 73 1.0 2.0 0.00 0.18 0.18 95 1015.6
20260902204711 74 73 0.0 1.0 0.00 0.18 0.18 94 1015.7
20260902204702 74 73 0.0 1.0 0.00 0.18 0.18 95 1015.7
20260902203923 74 73 0.0 1.0 0.00 0.18 0.18 94 1015.7
20260902203146 74 73 0.0 1.0 0.00 0.18 0.18 94 1015.7
20260902202644 75 73 0.0 1.0 0.00 0.18 0.18 94 1015.8
20260902202142 74 73 0.0 0.0 0.00 0.18 0.18 94 1015.9
20260902201639 74 73 0.0 0.0 0.00 0.18 0.18 94 1015.9
20260902201135 74 73 0.0 0.0 0.00 0.18 0.18 95 1016.0
20260902200634 74 73 0.0 1.0 0.00 0.18 0.18 94 1016.2
20260902200411 74 73 0.0 1.0 0.00 0.18 0.18 94 1016.1
20260902195634 74 73 0.0 0.0 0.00 0.18 0.18 94 1016.4
20260902195134 74 73 0.0 0.0 0.00 0.18 0.18 94 1016.6
20260902194633 74 73 0.0 0.0 0.01 0.18 0.18 94 1016.5
20260902194134 74 73 0.0 0.0 0.02 0.18 0.18 94 1016.2
20260902193632 74 73 0.0 0.0 0.03 0.18 0.18 94 1016.0
20260902193130 74 73 0.0 0.0 0.04 0.18 0.18 93 1015.9
20260902192632 74 73 0.0 1.0 0.06 0.18 0.18 93 1015.9
20260902192131 74 73 0.0 2.0 0.08 0.18 0.18 93 1015.7
20260902191631 74 73 1.0 2.0 0.12 0.18 0.18 93 1016.0
20260902191132 74 68 0.0 1.0 0.17 0.18 0.18 93 1015.9
20260902190630 74 68 0.0 2.0 0.18 0.18 0.18 93 1016.0
20260902190131 75 68 0.0 3.0 0.18 0.18 0.18 93 1016.1
20260902185630 74 68 2.0 3.0 0.18 0.00 0.18 92 1015.9
20260902185132 74 116 1.0 2.0 0.18 0.00 0.17 92 1016.2
20260902184631 75 127 1.0 2.0 0.17 0.00 0.17 92 1016.0
20260902184131 75 86 1.0 3.0 0.16 0.00 0.16 92 1016.0
20260902183631 75 87 2.0 4.0 0.15 0.00 0.15 92 1016.4
20260902183130 75 71 1.0 5.0 0.14 0.00 0.13 91 1016.2
20260902182631 75 49 2.0 9.0 0.12 0.00 0.12 90 1016.5
20260902182130 75 82 3.0 9.0 0.10 0.00 0.09 87 1017.2
20260902181630 78 87 3.0 12.0 0.06 0.00 0.06 83 1017.2
20260902181130 83 18 8.0 12.0 0.01 0.00 0.00 74 1017.3
20260902180629 87 72 3.0 13.0 0.00 0.00 0.00 66 1017.1
20260902180408 90 149 5.0 13.0 0.00 0.00 0.00 66 1016.9
20260902175629 90 47 2.0 5.0 0.00 0.00 0.00 69 1016.5
20260902175129 89 44 2.0 5.0 0.00 0.00 0.00 69 1016.5
20260902174629 90 87 2.0 5.0 0.00 0.00 0.00 68 1016.6
20260902174129 90 68 3.0 5.0 0.00 0.00 0.00 67 1016.7
20260902173629 91 38 2.0 5.0 0.00 0.00 0.00 67 1016.6
20260902173130 91 120 4.0 5.0 0.00 0.00 0.00 68 1016.5
20260902172629 92 56 2.0 3.0 0.00 0.00 0.00 68 1016.5
20260902172129 92 51 2.0 3.0 0.00 0.00 0.00 66 1016.6
20260902171629 91 24 1.0 3.0 0.00 0.00 0.00 68 1016.5
20260902171409 92 100 1.0 3.0 0.00 0.00 0.00 63 1016.5
20260902170629 92 102 2.0 3.0 0.00 0.00 0.00 62 1016.5
20260902170129 93 76 2.0 3.0 0.00 0.00 0.00 63 1016.2
20260902165628 94 68 0.0 3.0 0.00 0.00 0.00 63 1016.2
20260902165130 93 68 0.0 3.0 0.00 0.00 0.00 63 1016.3
20260902164905 93 61 0.0 3.0 0.00 0.00 0.00 65 1016.3
20260902164128 92 65 0.0 3.0 0.00 0.00 0.00 65 1016.4
20260902163628 92 30 1.0 3.0 0.00 0.00 0.00 69 1016.3
20260902163127 91 100 1.0 3.0 0.00 0.00 0.00 63 1016.3
20260902162627 93 66 1.0 4.0 0.00 0.00 0.00 64 1016.4
20260902162127 92 62 0.0 4.0 0.00 0.00 0.00 65 1016.4
20260902161628 91 44 0.0 2.0 0.00 0.00 0.00 66 1016.4
20260902161127 91 42 0.0 2.0 0.00 0.00 0.00 65 1016.3
20260902160627 92 45 0.0 4.0 0.00 0.00 0.00 67 1016.2